Tracking 31027 objects as of 19-Jul-2025
HD Live streaming from Space Station
objects crossing your sky now

THOR ABLESTAR DEB

Track THOR ABLESTAR DEB now!
10-day predictions


NORAD ID: 13502
Int'l Code: 1961-015KT
Perigee: 823.5 km
Apogee: 1,164.6 km
Inclination: 66.4 °
Period: 104.8 minutes
Semi major axis: 7365 km
RCS: 0.058 m2 (small)
Launch date: June 29, 1961
Source: United States (US)
Launch site: AIR FORCE EASTERN TEST RANGE (AFETR)

Note: This is SATELLITE DEBRIS
Your satellite tracking list
SL-8 R/B
Track 1 satellite(s)




NASA's NSSDC Master Catalog

Two Line Element Set (TLE):
1 13502U 61015KT  25199.48115334  .00001684  00000-0  15557-2 0  9993
2 13502  66.4456 261.2244 0231538  76.4886 303.3052 13.73529248104887
Source of the keplerian elements: AFSPC